Regional Weather Roundup
Issued by NWS Burlington, VT

Home | Current Version | Previous Version | Text Only | Print | Product List | Glossary On
Versions: 1 2 3 4 5 6 7 8 9 10 11 12 13 14 15 16 17 18 19 20 21 22 23 24 25 26 27 28 29 30 31 32 33 34 35 36 37 38 39 40 41 42 43 44 45 46 47 48 49 50
000
ASUS41 KBTV 311610
RWRBTV
VERMONT REGIONAL WEATHER ROUNDUP
NATIONAL WEATHER SERVICE BURLINGTON VT
1200 PM EDT THU JUL 31 2014

NOTE: "FAIR" INDICATES FEW OR NO CLOUDS BELOW 12,000 FEET WITH NO
SIGNIFICANT WEATHER AND/OR OBSTRUCTIONS TO VISIBILITY.

* THESE REPORTS ARE NOT UNDER NWS QUALITY CONTROL AND/OR DO NOT
  REPORT WEATHER SUCH AS PRECIPITATION AND FOG.

VTZ001>019-311700-
_____VERMONT_____


CITY           SKY/WX    TMP DP  RH WIND       PRES   REMARKS
BURLINGTON     MOSUNNY   73  55  53 S20G26    30.01F
MONTPELIER     CLOUDY    68  57  68 S10       30.09S
MORRISVILLE    CLOUDY    70  57  63 S6        30.05S
ST. JOHNSBURY*   N/A     64  56  75 MISG      30.05F
LYNDONVILLE*   PTSUNNY   66  55  68 SE6       30.09F
MIDDLEBURY*    FAIR      72  59  63 S9G16     30.03F
RUTLAND*       PTSUNNY   66  57  72 SW5       30.06S
SPRINGFIELD    CLOUDY    65  59  81 CALM      30.08F
HIGHGATE*      FAIR      73  57  58 S8G17     30.00S
NEWPORT*       PTSUNNY   68  58  69 SE9       30.04F
BENNINGTON     CLOUDY    68  60  75 CALM      30.07F

_____LAKE CHAMPLAIN_____


CITY           SKY/WX    TMP DP  RH WIND       PRES   REMARKS
COLCHESTER RF*   N/A     68  59  73 S20         N/A
DIAMOND ISL*     N/A     70  57  64 SE20        N/A

$$

NYZ007-026>031-035-052-083-311700-
_____NORTHERN NEW YORK_____


CITY           SKY/WX    TMP DP  RH WIND       PRES   REMARKS
PLATTSBURGH    MOSUNNY   70  60  70 S17       29.99F
SARANAC LAKE   HVY RAIN  56  53  90 SW6       30.02F FOG
MASSENA        LGT RAIN  60  58  92 NW3       30.02R
OGDENSBURG*    CLOUDY    64  61  88 SW7       30.00S
POTSDAM*       DRIZZLE   61  61 100 CALM      30.01S
WATERTOWN      MOSUNNY   70  58  65 SW14      30.02R
FT DRUM        PTSUNNY   68  58  70 SW9       30.01R
ALBANY         CLOUDY    71  60  68 S9G17     30.05F
GLENS FALLS    PTSUNNY   68  58  70 S9G20     30.05S

$$
NHZ002-005-011-311700-
_____NEW HAMPSHIRE_____


CITY           SKY/WX    TMP DP  RH WIND       PRES   REMARKS
LEBANON        LGT RAIN  64  60  87 CALM      30.07S
KEENE          CLOUDY    70  52  52 S9        30.09F
MT WASHINGTON  FOG       45  45 100 S26G36      N/A  VSB 0
PLYMOUTH       CLOUDY    66  58  76 CALM      30.08F
WHITEFIELD     CLOUDY    65  58  78 CALM      30.08S

$$

_____REGIONAL QUEBEC LOCATIONS_____


CITY           SKY/WX    TMP DP  RH WIND       PRES   REMARKS
MONTREAL       CLOUDY    70  55  60 SE9       29.97F
QUEBEC CITY    PTSUNNY   68  57  68 VRB2      30.03F
SHERBROOKE     PTSUNNY   70  57  64 S6        30.04F

_____REGIONAL ONTARIO LOCATIONS_____


CITY           SKY/WX    TMP DP  RH WIND       PRES   REMARKS
OTTAWA         PTSUNNY   59  57  94 S8        30.00F

______KEY______
VSB  - VISIBILITY IN MILES
WCI  - WIND CHILL INDEX
HX   - HEAT INDEX
$$
NNNN


USA.gov is the U.S. government's official web portal to all federal, state and local government web resources and services.